Weather History for Whiting Fld NAS, FL

Change the Weather History Date:

Wednesday, November 13, 2013

  Actual Average Record
Temperature  
Mean Temperature 43 °F -  
Max Temperature 54 °F 67 °F 81 °F (2008)
Min Temperature 32 °F 49 °F 32 °F (2013)
Degree Days  
Heating Degree Days 22    
Moisture  
Dew Point 20 °F    
Average Humidity 46    
Maximum Humidity 82    
Minimum Humidity 25    
Precipitation  
Precipitation 0.00 in - - ()
Sea Level Pressure  
Sea Level Pressure 30.41 in    
Wind  
Wind Speed 9 mph (NNE)    
Max Wind Speed 18 mph    
Max Gust Speed 26 mph    
Visibility 10 miles    
Events      
Averages and records for this station are not official NWS values.
T = Trace of Precipitation, MM = Missing Value Source: NWS Daily Summary

Daily Weather History Graph

Daily Weather History Graph

Search for Another Location

Airport:

Trip Planner

Search our weather history database for the weather conditions in past years. The results will help you decide how hot, cold, wet, or windy it might be!

Date:

Astronomy

Nov. 13, 2013 Rise Set
Actual Time 6:12 AM CST 4:51 PM CST
Civil Twilight 5:47 AM CST 5:16 PM CST
Nautical Twilight 5:18 AM CST 5:45 PM CST
Astronomical Twilight 4:49 AM CST 6:14 PM CST
Moon 2:25 PM CST (11/13) 2:20 AM CST (11/13)
Length of Visible Light 11h 29m
Length of Day
10h 38m
Waxing Gibbous, 85% of the Moon is Illuminated
Nov 13
Waxing Gibbous
Nov 17
Full
Nov 25
Last Quarter
Dec 2
New
Dec 9
First Quarter

Hourly Weather History & Observations

Time (CST) Temp. Windchill Dew Point Humidity Pressure Visibility Wind Dir Wind Speed Gust Speed Precip Events Conditions
12:56 AM 39.0 °F 33.4 °F 19.0 °F 45% 30.37 in 10.0 mi NNE 8.1 mph 26.5 mph N/A   Clear
1:56 AM 37.0 °F 31.0 °F 18.0 °F 46% 30.37 in 10.0 mi NNE 8.1 mph 16.1 mph 0.00 in   Clear
2:56 AM 37.0 °F 29.3 °F 17.1 °F 44% 30.38 in 10.0 mi NNE 11.5 mph 20.7 mph N/A   Unknown
3:56 AM 35.1 °F 27.4 °F 17.1 °F 48% 30.38 in 10.0 mi North 10.4 mph - N/A   Unknown
4:56 AM 34.0 °F 26.0 °F 17.1 °F 50% 30.40 in 10.0 mi North 10.4 mph 18.4 mph N/A   Unknown
5:56 AM 33.1 °F 23.0 °F 17.1 °F 52% 30.43 in 10.0 mi NNE 15.0 mph - N/A   Mostly Cloudy
6:56 AM 34.0 °F 24.2 °F 18.0 °F 52% 30.45 in 10.0 mi North 15.0 mph 20.7 mph N/A   Scattered Clouds
7:56 AM 37.0 °F 31.6 °F 18.0 °F 46% 30.46 in 10.0 mi Variable 6.9 mph 20.7 mph N/A   Scattered Clouds
8:56 AM 41.0 °F 35.2 °F 19.0 °F 41% 30.46 in 10.0 mi NE 9.2 mph 23.0 mph N/A   Scattered Clouds
9:56 AM 46.0 °F 41.4 °F 19.0 °F 34% 30.46 in 10.0 mi NE 9.2 mph 18.4 mph N/A   Scattered Clouds
10:56 AM 48.9 °F - 19.0 °F 31% 30.45 in 10.0 mi NNE 12.7 mph 21.9 mph N/A   Scattered Clouds
11:56 AM 51.1 °F - 19.9 °F 29% 30.42 in 10.0 mi NNE 15.0 mph 23.0 mph N/A   Scattered Clouds
12:56 PM 54.0 °F - 19.0 °F 25% 30.40 in 10.0 mi NNE 18.4 mph 21.9 mph N/A   Scattered Clouds
1:56 PM 54.0 °F - 19.0 °F 25% 30.38 in 10.0 mi NNE 9.2 mph 20.7 mph N/A   Scattered Clouds
2:56 PM 54.0 °F - 19.9 °F 26% 30.38 in 10.0 mi Variable 5.8 mph - N/A   Scattered Clouds
3:56 PM 53.1 °F - 19.9 °F 27% 30.38 in 10.0 mi NNE 8.1 mph - N/A   Scattered Clouds
4:56 PM 48.0 °F - 23.0 °F 37% 30.39 in 10.0 mi NNE 6.9 mph - N/A   Partly Cloudy
5:56 PM 44.1 °F 40.8 °F 24.1 °F 45% 30.40 in 10.0 mi NNE 5.8 mph - N/A   Partly Cloudy
6:56 PM 37.9 °F 35.5 °F 26.1 °F 62% 30.41 in 10.0 mi North 3.5 mph - N/A   Partly Cloudy
7:56 PM 32.0 °F - 27.0 °F 82% 30.43 in 10.0 mi Calm Calm - N/A   Partly Cloudy
8:56 PM 34.0 °F 29.8 °F 26.1 °F 73% 30.43 in 10.0 mi NNE 4.6 mph - N/A   Partly Cloudy
9:56 PM 36.0 °F 30.3 °F 24.1 °F 62% 30.42 in 10.0 mi NNE 6.9 mph - N/A   Partly Cloudy
10:56 PM 36.0 °F 31.1 °F 23.0 °F 59% 30.40 in 10.0 mi NNE 5.8 mph - N/A   Partly Cloudy
11:56 PM 36.0 °F 31.1 °F 21.9 °F 57% 30.38 in 10.0 mi NE 5.8 mph - N/A   Unknown